Regional Weather Roundup
Issued by NWS

Home | Current Version | Previous Version | Text Only | Print | Product List | Glossary Off
Versions: 1 2 3 4 5 6 7 8 9 10 11 12 13 14 15 16 17 18 19 20 21 22 23 24 25 26 27 28 29 30 31 32 33 34 35 36 37 38 39 40 41 42 43 44 45 46 47 48 49 50

000
ASUS45 KTFX 231810
RWRMT
MONTANA REGIONAL WEATHER ROUNDUP
NATIONAL WEATHER SERVICE GREAT FALLS MT
1200 PM MDT SAT MAY 23 2015

NOTE: "FAIR" INDICATES FEW OR NO CLOUDS BELOW 12000 FEET WITH NO
SIGNIFICANT WEATHER AND/OR OBSTRUCTIONS TO VISIBILITY.

MTZ001>007-043-231900-
WEST OF THE DIVIDE

CITY           SKY/WX    TMP DP  RH WIND       PRES   REMARKS
KALISPELL      PTCLDY    73  34  23 NE10G18   30.03F
MISSOULA       CLOUDY    67  39  35 VRB5      30.01S
BUTTE          CLOUDY    55  39  54 N13G24    30.05R
MULLAN PASS    SUNNY     61  36  39 VRB5      30.11R
DEER LODGE       N/A     55  43  62 NE12G18   30.10S
EUREKA           N/A     73  30  20 W3        30.05F
HAMILTON         N/A     64  41  42 N14       29.99F
LIBBY            N/A     73  36  25 N9        30.02F
PLAINS           N/A     77  38  24 NE10      30.00S
RONAN            N/A     70  39  32 N15       30.06S
THOMPSON FALLS   N/A     74  38  27 E2        30.03S
$$

MTZ008-052>055-231900-
SOUTHWEST MONTANA

CITY           SKY/WX    TMP DP  RH WIND       PRES   REMARKS
BOZEMAN        CLOUDY    54  46  74 SE3       30.03R
DILLON         MOSUNNY   62  41  46 N22       29.98F
W YELLOWSTONE  CLOUDY    54  37  54 N12G18    29.99S
$$

MTZ009-010-012-014-046-048-049-054-231900-
EAST SLOPES AND CENTRAL MONTANA

CITY           SKY/WX    TMP DP  RH WIND       PRES   REMARKS
CUT BANK       PTSUNNY   62  44  51 E14       30.11R
GREAT FALLS    CLOUDY    53  51  93 NW7       30.09S
MALMSTROM AFB  CLOUDY    54  51  90 NW7       30.09S
HELENA         CLOUDY    58  45  62 N14       30.04S
CONRAD           N/A     59  52  77 NW6       30.12F
$$

MTZ011-013-016-021-045-047-050-051-231900-
NORTH CENTRAL MONTANA

CITY           SKY/WX    TMP DP  RH WIND       PRES   REMARKS
HAVRE          MOSUNNY   69  43  38 E16       30.06F
LEWISTOWN      LGT RAIN  53  49  86 W3        30.07S
CHINOOK          N/A     68  39  34 E10G21    30.07S
FORT BENTON      N/A     64  50  59 CALM      30.07S
$$

MTZ017>020-022>027-061-062-231900-
NORTHEAST MONTANA

CITY           SKY/WX    TMP DP  RH WIND       PRES   REMARKS
GLASGOW        MOSUNNY   69  38  32 SE24G32   30.07S
JORDAN           N/A     65  42  43 SE15G23   30.04S
SIDNEY         SUNNY     70  41  35 SE14G23   30.10S
WOLF POINT     MOSUNNY   71  41  33 E22       30.08F
MALTA            N/A     66  43  43 NE12      30.05R
PLENTYWOOD       N/A     72  34  25 E21G30    30.11S
POPLAR           N/A     70  39  32 E20G29    30.09S
SCOBEY           N/A     71  36  27 E18       30.10S
$$

MTZ028>42-056>058-231900-
SOUTHCENTRAL AND SOUTHEAST MONTANA

CITY           SKY/WX    TMP DP  RH WIND       PRES   REMARKS
BAKER          CLOUDY    57  44  62 SE18      30.09R
BILLINGS       CLOUDY    65  43  44 NE15G22   30.00S
LIVINGSTON     CLOUDY    52  46  80 E18       30.03R
MILES CITY     PTSUNNY   61  43  51 SE12      30.03S
BIG TIMBER       N/A     52  48  87 N7        30.05S
EKALAKA          N/A     51  46  83 E13       30.04R
FORSYTH          N/A     61  43  51 E9        30.02S
LAUREL           N/A     61  43  51 NE8       30.00R
ROUNDUP          N/A     62  45  53 N12       29.94S
$$

REGIONAL REPORTS...DAKOTAS

CITY           SKY/WX    TMP DP  RH WIND       PRES   REMARKS
WILLISTON      SUNNY     71  40  32 SE14      30.11F
MINOT          SUNNY     72  39  30 E8        30.11F
DICKINSON      PTSUNNY   61  45  55 SE15G24   30.10R
BEACH          MOCLDY    59  45  58 SE14G26   30.11R
CROSBY         FAIR      72  32  23 CALM      30.13S
WATFORD CITY   FAIR      68  39  34 SE12G23   30.10S
BISMARCK       PTSUNNY   65  47  52 S8        30.14F
GRAND FORKS    MOSUNNY   76  46  34 SW12G17   30.12F
FARGO          SUNNY     71  47  42 S16       30.17F
BUFFALO SD       N/A     54  48  80 SE12      30.02S
RAPID CITY     CLOUDY    54  46  74 S9        30.07S
$$

REGIONAL REPORTS...WYOMING/IDAHO/WASHINGTON

CITY           SKY/WX    TMP DP  RH WIND       PRES   REMARKS
GILLETTE       CLOUDY    52  44  74 SE8       30.01S
SHERIDAN       CLOUDY    52  46  80 CALM      30.01R
BUFFALO WY     CLOUDY    52  47  83 VRB3      30.01S
CODY           CLOUDY    48  46  93 N16G24    29.99S
YELLOWSTONE LA   N/A     46  37  71 VRB3      30.03R
IDAHO FALLS    PTSUNNY   60  46  59 N7        29.91F
SALMON         PTSUNNY   66  43  42 N6        29.93F
BOISE          MOSUNNY   68  50  52 NW14      29.89F
SPOKANE        PTSUNNY   70  49  47 SW5       30.01S
$$

REGIONAL REPORTS...ALBERTA

CITY           SKY/WX    TMP DP  RH WIND       PRES   REMARKS
EDMONTON       SUNNY     77  30  18 SW3       30.11F
CALGARY        MOSUNNY   70  27  19 SE7G17    30.16F
LETHBRIDGE     MOSUNNY   70  36  28 NE12G29   30.13S
MEDICINE HAT   PTSUNNY   75  30  19 E14G24    30.09S
$$

REGIONAL REPORTS...SASKATCHEWAN

CITY           SKY/WX    TMP DP  RH WIND       PRES   REMARKS
SWIFT CURRENT  MOSUNNY   72  34  25 E14G24    30.12R
REGINA         MOSUNNY   75  36  23 SE12      30.12S
SASKATOON      CLOUDY    77  30  18 W8        30.11F
$$


USA.gov is the U.S. government's official web portal to all federal, state and local government web resources and services.